Location: Del Amo
(33.8464°N, 118.2104°W)
Time: 01:28:03
(UTC+00:00)

SR - Pass Details

Date: 20 September 2024
Orbit: 578 x 855 km, 66.7° (Epoch: 06 October)

Event Time Altitude Azimuth Distance (km) Brightness Sun altitude
Rises 18:53:00 0° 193° (SSW) 2,839 ? 54.6°
Reaches altitude 10° 18:55:18 10° 188° (S) 1,915 ? 54.8°
Maximum altitude 18:59:26 50° 113° (ESE) 741 ? 55.1°
Drops below altitude 10° 19:03:30 10° 37° (NE) 1,892 ? 55.4°
Sets 19:05:47 0° 33° (NNE) 2,800 ? 55.5°
